Regional Weather Roundup
Issued by NWS

Home | Current Version | Previous Version | Text Only | Print | Product List | Glossary On
Versions: 1 2 3 4 5 6 7 8 9 10 11 12 13 14 15 16 17 18 19 20 21 22 23 24 25 26 27
000
ASUS44 KJAN 250910
RWRMS

MISSISSIPPI HOURLY WEATHER ROUNDUP
NATIONAL WEATHER SERVICE JACKSON MS
400 AM CDT SUN JUN 25 2017

NOTE: "FAIR: INDICATES FEW OR NO CLOUDS BELOW 12,000 FEET WITH NO
SIGNIFICANT WEATHER AND/OR OBSTRUCTIONS TO VISIBILITY.

MSZ001>002-007>008-010>013-018>021-025>028-034>036-251000-
NORTHWEST MISSISSIPPI

CITY           SKY/WX    TMP DP  RH WIND       PRES   REMARKS
BATESVILLE     FAIR      68  60  75 CALM      30.18R
CLARKSDALE       N/A     70  70 100 CALM      30.18R
CLEVELAND        N/A     69  69 100 N7        30.17S
GREENWOOD      CLOUDY    69  67  93 CALM      30.16R
GREENVILLE     CLOUDY    69  65  86 N3        30.16S
OXFORD         FAIR      66  55  68 N5        30.20R
TUNICA           N/A     68  63  83 CALM      30.18F
WINONA         FAIR      67  65  92 N5        30.17R
$$

MSZ003>006-009-014>017-022>024-029>033-037>039-251000-
NORTHEAST MISSISSIPPI

CITY           SKY/WX    TMP DP  RH WIND       PRES   REMARKS
COLUMBUS AFB   CLOUDY    69  67  94 N8        30.15R
CORINTH          N/A     66  61  82 E6        30.17F
GOLDN TRIANGLE CLOUDY    68  61  77 N6        30.11R
STARKVILLE     FAIR      66  64  94 CALM      30.17R
TUPELO         LGT RAIN  68  59  73 NE6       30.15F
$$

MSZ040-058-251000-
CENTRAL MISSISSIPPI

CITY           SKY/WX    TMP DP  RH WIND       PRES   REMARKS
JACKSON INTL   CLOUDY    74  65  73 NE7       30.14S
JACKSON HAWKNS CLOUDY    74  65  73 N3        30.15R
MADISON        FAIR      70  64  83 CALM      30.14S
MERIDIAN KEY   CLOUDY    73  67  81 N8        30.12S
MERIDIAN NAS   CLOUDY    72  65  78 NW6       30.13S
RAYMOND        FAIR      72  68  88 CALM      30.14S
VICKSBURG VKS  CLOUDY    73  64  73 NE5       30.11S
$$

MSZ059>079-251000-
SOUTH MISSISSIPPI

CITY           SKY/WX    TMP DP  RH WIND       PRES   REMARKS
COLUMBIA       CLOUDY    73  73 100 CALM      30.14R
HATTIESBURG    CLEAR     75  73  93 CALM      30.10S
LAUREL         CLOUDY    74  72  94 N5        30.11S
MCCOMB         PTCLDY    75  71  87 N5        30.11S
NATCHEZ        CLOUDY    72  70  93 N5        30.13S
PINE BELT      PTCLDY    73  68  83 N6        30.13S
$$

MSZ080>082-251000-
COASTAL MISSISSIPPI

CITY           SKY/WX    TMP DP  RH WIND       PRES   REMARKS
BILOXI         CLOUDY    76  74  95 NW5       30.07R
PASCAGOULA     CLOUDY    76  74  93 CALM      30.06S
GULFPORT       CLOUDY    75  75 100 W3        30.07S
$$

LAZ007>009-015>016-023>026-251000-
NORTHEAST LOUISIANA

CITY           SKY/WX    TMP DP  RH WIND       PRES   REMARKS
BASTROP        CLOUDY    70  69  98 CALM      30.17S
TALLULAH/VBURG PTCLDY    73  66  78 N6        30.14S
VIDALIA        FAIR      73  71  94 N3        30.11S
$$




USA.gov is the U.S. government's official web portal to all federal, state and local government web resources and services.